,,PA_Meas_PMT16A,,PR_Meas_QMR101_102,,RH_Meas_QMH101,,SR_Meas_QMS101,,TA_Meas_QMH101,,GenWind,,GenWind,
time,status,PA,status,PR,status,RH,status,SR,status,TA,status,DirAvg,status,SpdAvg,
2013-11-05, 00:00:04,VALID,919.054,VALID,0,VALID,97.0766,VALID,0,VALID,19.8588,VALID,277,VALID,0,
2013-11-05, 00:01:04,VALID,919.051,VALID,0,VALID,97.0994,VALID,0.107441,VALID,19.8393,VALID,277,VALID,0,
2013-11-05, 00:02:04,VALID,919.059,VALID,0,VALID,97.0766,VALID,0,VALID,19.8588,VALID,277,VALID,0,
2013-11-05, 00:03:04,VALID,919.064,VALID,0,VALID,97.0918,VALID,0,VALID,19.8783,VALID,277,VALID,0,
2013-11-05, 00:04:04,VALID,919.056,VALID,0,VALID,97.0842,VALID,0,VALID,19.8783,VALID,277,VALID,0,
2013-11-05, 00:05:04,VALID,919.068,VALID,0,VALID,97.0766,VALID,0,VALID,19.9173,VALID,277,VALID,0,
2013-11-05, 00:06:04,VALID,919.07,VALID,0,VALID,97.0842,VALID,0.107441,VALID,19.9173,VALID,277,VALID,0,
2013-11-05, 00:07:04,VALID,919.087,VALID,0,VALID,97.0994,VALID,0,VALID,19.8978,VALID,277,VALID,0,
2013-11-05, 00:08:04,VALID,919.09,VALID,0,VALID,97.069,VALID,0,VALID,19.8783,VALID,277,VALID,0,
2013-11-05, 00:09:04,VALID,919.085,VALID,0,VALID,97.0613,VALID,0,VALID,19.8783,VALID,277,VALID,0,
2013-11-05, 00:10:04,VALID,919.087,VALID,0,VALID,97.0842,VALID,0,VALID,19.8588,VALID,277,VALID,0,
2013-11-05, 00:11:04,VALID,919.094,VALID,0,VALID,97.0766,VALID,0,VALID,19.8588,VALID,277,VALID,0,
2013-11-05, 00:12:04,VALID,919.081,VALID,0,VALID,97.0766,VALID,0,VALID,19.8588,VALID,277,VALID,0,
2013-11-05, 00:13:04,VALID,919.085,VALID,0,VALID,97.0918,VALID,0.107441,VALID,19.8588,VALID,277,VALID,0,
2013-11-05, 00:14:04,VALID,919.116,VALID,0,VALID,97.0918,VALID,0,VALID,19.8378,VALID,277,VALID,0,
2013-11-05, 00:15:04,VALID,919.074,VALID,0,VALID,97.0766,VALID,0.107441,VALID,19.8783,VALID,277,VALID,0,
2013-11-05, 00:16:04,VALID,919.063,VALID,0,VALID,97.0842,VALID,0,VALID,19.8378,VALID,277,VALID,0,
2013-11-05, 00:17:04,VALID,919.056,VALID,0,VALID,97.0994,VALID,0,VALID,19.8573,VALID,277,VALID,0,
2013-11-05, 00:18:04,VALID,919.056,VALID,0,VALID,97.069,VALID,0.107441,VALID,19.8783,VALID,277,VALID,0,
2013-11-05, 00:19:04,VALID,919.038,VALID,0,VALID,97.0918,VALID,0.107441,VALID,19.8978,VALID,277,VALID,0,
2013-11-05, 00:20:04,VALID,919.048,VALID,0,VALID,97.0918,VALID,0.107441,VALID,19.8783,VALID,277,VALID,0,
2013-11-05, 00:21:04,VALID,919.057,VALID,0,VALID,97.0918,VALID,0,VALID,19.8783,VALID,277,VALID,0,
2013-11-05, 00:22:04,VALID,919.03,VALID,0,VALID,97.0918,VALID,0,VALID,19.8978,VALID,277,VALID,0,
2013-11-05, 00:23:04,VALID,919.037,VALID,0,VALID,97.1071,VALID,0.107441,VALID,19.8978,VALID,277,VALID,0,
2013-11-05, 00:24:04,VALID,919.008,VALID,0,VALID,97.0994,VALID,0.107441,VALID,19.8963,VALID,277,VALID,0,
2013-11-05, 00:25:04,VALID,919.012,VALID,0,VALID,97.0842,VALID,0,VALID,19.8978,VALID,277,VALID,0,
2013-11-05, 00:26:04,VALID,918.985,VALID,0,VALID,97.0918,VALID,0,VALID,19.8978,VALID,277,VALID,0,
2013-11-05, 00:27:04,VALID,918.965,VALID,0,VALID,97.0994,VALID,0.107441,VALID,19.8783,VALID,277,VALID,0,
2013-11-05, 00:28:04,VALID,918.951,VALID,0,VALID,97.0918,VALID,0.107441,VALID,19.8768,VALID,277,VALID,0,
2013-11-05, 00:29:04,VALID,918.959,VALID,0,VALID,97.0994,VALID,0.107441,VALID,19.8573,VALID,277,VALID,0,
2013-11-05, 00:30:04,VALID,918.985,VALID,0,VALID,97.1147,VALID,0.107441,VALID,19.8978,VALID,277,VALID,0,
2013-11-05, 00:31:04,VALID,918.933,VALID,0.2,VALID,97.1147,VALID,0,VALID,19.8978,VALID,277,VALID,0,
2013-11-05, 00:32:04,VALID,918.916,VALID,0,VALID,97.1223,VALID,0.107441,VALID,19.8978,VALID,277,VALID,0,
2013-11-05, 00:33:04,VALID,918.912,VALID,0,VALID,97.0994,VALID,0,VALID,19.8588,VALID,277,VALID,0,
2013-11-05, 00:34:04,VALID,918.883,VALID,0,VALID,97.1071,VALID,0.107441,VALID,19.8573,VALID,277,VALID,0,
2013-11-05, 00:35:04,VALID,918.883,VALID,0,VALID,97.0994,VALID,0,VALID,19.8588,VALID,277,VALID,0,
2013-11-05, 00:36:04,VALID,918.849,VALID,0,VALID,97.1071,VALID,0,VALID,19.8978,VALID,277,VALID,0,
2013-11-05, 00:37:04,VALID,918.85,VALID,0,VALID,97.0994,VALID,0,VALID,19.8588,VALID,277,VALID,0,
2013-11-05, 00:38:04,VALID,918.822,VALID,0,VALID,97.1299,VALID,0.107441,VALID,19.8183,VALID,277,VALID,0,
2013-11-05, 00:39:04,VALID,918.823,VALID,0,VALID,97.1071,VALID,0.107441,VALID,19.8198,VALID,277,VALID,0,
2013-11-05, 00:40:04,VALID,918.83,VALID,0.2,VALID,97.1299,VALID,0.107441,VALID,19.8393,VALID,277,VALID,0,
2013-11-05, 00:41:04,VALID,918.833,VALID,0,VALID,97.1147,VALID,0.107441,VALID,19.8183,VALID,277,VALID,0,
2013-11-05, 00:42:04,VALID,918.832,VALID,0,VALID,97.1071,VALID,0.107441,VALID,19.8198,VALID,277,VALID,0,
2013-11-05, 00:43:04,VALID,918.804,VALID,0,VALID,97.1299,VALID,0.107441,VALID,19.8393,VALID,277,VALID,0,
2013-11-05, 00:44:04,VALID,918.815,VALID,0,VALID,97.1223,VALID,0,VALID,19.8393,VALID,278,VALID,0,
2013-11-05, 00:45:04,VALID,918.784,VALID,0.2,VALID,97.1299,VALID,0,VALID,19.8588,VALID,277,VALID,0,
2013-11-05, 00:46:04,VALID,918.777,VALID,0,VALID,97.1299,VALID,0.107441,VALID,19.8783,VALID,277,VALID,0,
2013-11-05, 00:47:04,VALID,918.734,VALID,0,VALID,97.1299,VALID,0.107441,VALID,19.8768,VALID,277,VALID,0,
2013-11-05, 00:48:04,VALID,918.745,VALID,0,VALID,97.1223,VALID,0,VALID,19.8783,VALID,277,VALID,0,
2013-11-05, 00:49:04,VALID,918.707,VALID,0,VALID,97.1376,VALID,0.107441,VALID,19.8978,VALID,277,VALID,0,
2013-11-05, 00:50:04,VALID,918.712,VALID,0,VALID,97.1223,VALID,0,VALID,19.9368,VALID,277,VALID,0,
2013-11-05, 00:51:04,VALID,918.666,VALID,0,VALID,97.1071,VALID,0.107441,VALID,19.9158,VALID,277,VALID,0,
2013-11-05, 00:52:04,VALID,918.649,VALID,0,VALID,97.1147,VALID,0.107441,VALID,19.9173,VALID,277,VALID,0,
2013-11-05, 00:53:04,VALID,918.65,VALID,0,VALID,97.1223,VALID,0.107441,VALID,19.8573,VALID,277,VALID,0,
2013-11-05, 00:54:04,VALID,918.641,VALID,0,VALID,97.1223,VALID,0,VALID,19.8783,VALID,277,VALID,0,
2013-11-05, 00:55:04,VALID,918.626,VALID,0.2,VALID,97.1376,VALID,0,VALID,19.8978,VALID,277,VALID,0,
2013-11-05, 00:56:04,VALID,918.626,VALID,0,VALID,97.1376,VALID,0,VALID,19.9173,VALID,277,VALID,0,
2013-11-05, 00:57:04,VALID,918.621,VALID,0,VALID,97.1223,VALID,0,VALID,19.8978,VALID,277,VALID,0,
2013-11-05, 00:58:04,VALID,918.597,VALID,0,VALID,97.1223,VALID,0.107441,VALID,19.8978,VALID,277,VALID,0,
2013-11-05, 00:59:04,VALID,918.613,VALID,0,VALID,97.1071,VALID,0.107441,VALID,19.9368,VALID,277,VALID,0,
2013-11-05, 01:00:04,VALID,918.589,VALID,0,VALID,97.1147,VALID,0,VALID,19.9563,VALID,277,VALID,0,
2013-11-05, 01:01:04,VALID,918.583,VALID,0,VALID,97.0994,VALID,0,VALID,19.9758,VALID,277,VALID,0,
2013-11-05, 01:02:04,VALID,918.562,VALID,0,VALID,97.1376,VALID,0,VALID,19.9758,VALID,277,VALID,0,
2013-11-05, 01:03:04,VALID,918.542,VALID,0,VALID,97.1299,VALID,0,VALID,19.9173,VALID,277,VALID,0,
2013-11-05, 01:04:04,VALID,918.528,VALID,0,VALID,97.1376,VALID,0,VALID,19.8963,VALID,277,VALID,0,
2013-11-05, 01:05:04,VALID,918.518,VALID,0,VALID,97.1223,VALID,0.107441,VALID,19.9368,VALID,277,VALID,0,
2013-11-05, 01:06:04,VALID,918.519,VALID,0,VALID,97.1223,VALID,0.107441,VALID,19.8783,VALID,277,VALID,0,
2013-11-05, 01:07:04,VALID,918.483,VALID,0,VALID,97.1376,VALID,0.107441,VALID,19.8783,VALID,277,VALID,0,
2013-11-05, 01:08:04,VALID,918.477,VALID,0,VALID,97.1223,VALID,0.107441,VALID,19.8588,VALID,277,VALID,0,
2013-11-05, 01:09:04,VALID,918.481,VALID,0,VALID,97.1147,VALID,0.107441,VALID,19.8978,VALID,277,VALID,0,
2013-11-05, 01:10:04,VALID,918.445,VALID,0,VALID,97.1223,VALID,0.107441,VALID,19.8978,VALID,277,VALID,0,
2013-11-05, 01:11:04,VALID,918.439,VALID,0,VALID,97.1452,VALID,0,VALID,19.8393,VALID,277,VALID,0,
2013-11-05, 01:12:04,VALID,918.425,VALID,0,VALID,97.1299,VALID,0.107441,VALID,19.8003,VALID,277,VALID,0,
2013-11-05, 01:13:04,VALID,918.441,VALID,0,VALID,97.1223,VALID,0,VALID,19.7823,VALID,277,VALID,0,
2013-11-05, 01:14:04,VALID,918.411,VALID,0,VALID,97.1299,VALID,0,VALID,19.7598,VALID,277,VALID,0,
2013-11-05, 01:15:04,VALID,918.405,VALID,0,VALID,97.1223,VALID,0.107441,VALID,19.7613,VALID,277,VALID,0,
2013-11-05, 01:16:04,VALID,918.418,VALID,0,VALID,97.1376,VALID,0,VALID,19.7613,VALID,277,VALID,0,
2013-11-05, 01:17:04,VALID,918.375,VALID,0.2,VALID,97.1452,VALID,0.107441,VALID,19.8003,VALID,277,VALID,0,
2013-11-05, 01:18:04,VALID,918.385,VALID,0,VALID,97.1452,VALID,0,VALID,19.7808,VALID,277,VALID,0,
2013-11-05, 01:19:04,VALID,918.396,VALID,0,VALID,97.1376,VALID,0.107441,VALID,19.7808,VALID,277,VALID,0,
2013-11-05, 01:20:04,VALID,918.394,VALID,0,VALID,97.1223,VALID,0.107441,VALID,19.7808,VALID,277,VALID,0,
2013-11-05, 01:21:04,VALID,918.344,VALID,0,VALID,97.1376,VALID,0,VALID,19.7613,VALID,277,VALID,0,
2013-11-05, 01:22:04,VALID,918.384,VALID,0,VALID,97.1528,VALID,0,VALID,19.7613,VALID,277,VALID,0,
2013-11-05, 01:23:04,VALID,918.359,VALID,0,VALID,97.1223,VALID,0,VALID,19.7628,VALID,277,VALID,0,
2013-11-05, 01:24:04,VALID,918.361,VALID,0,VALID,97.1376,VALID,0,VALID,19.7418,VALID,277,VALID,0,
2013-11-05, 01:25:04,VALID,918.356,VALID,0,VALID,97.1528,VALID,0,VALID,19.7223,VALID,277,VALID,0,
2013-11-05, 01:26:04,VALID,918.341,VALID,0,VALID,97.1604,VALID,0,VALID,19.7028,VALID,277,VALID,0,
2013-11-05, 01:27:04,VALID,918.357,VALID,0,VALID,97.1528,VALID,0,VALID,19.6833,VALID,277,VALID,0,
2013-11-05, 01:28:04,VALID,918.341,VALID,0,VALID,97.1528,VALID,0,VALID,19.7028,VALID,277,VALID,0,
2013-11-05, 01:29:04,VALID,918.346,VALID,0,VALID,97.1681,VALID,0,VALID,19.7223,VALID,277,VALID,0,
2013-11-05, 01:30:04,VALID,918.336,VALID,0,VALID,97.1376,VALID,0,VALID,19.7223,VALID,277,VALID,0,
2013-11-05, 01:31:04,VALID,918.313,VALID,0.2,VALID,97.1376,VALID,0.107441,VALID,19.7223,VALID,277,VALID,0,
2013-11-05, 01:32:04,VALID,918.3,VALID,0,VALID,97.1376,VALID,0,VALID,19.7223,VALID,277,VALID,0,
2013-11-05, 01:33:04,VALID,918.258,VALID,0,VALID,97.1604,VALID,0.107441,VALID,19.7028,VALID,277,VALID,0,
2013-11-05, 01:34:04,VALID,918.266,VALID,0,VALID,97.1528,VALID,0,VALID,19.7028,VALID,277,VALID,0,
2013-11-05, 01:35:04,VALID,918.231,VALID,0.2,VALID,97.1376,VALID,0,VALID,19.7028,VALID,277,VALID,0,
2013-11-05, 01:36:04,VALID,918.253,VALID,0.2,VALID,97.1452,VALID,0,VALID,19.7043,VALID,55,VALID,0,
2013-11-05, 01:37:04,VALID,918.248,VALID,0,VALID,97.1604,VALID,0,VALID,19.6833,VALID,53,VALID,0,
2013-11-05, 01:38:04,VALID,918.233,VALID,0.2,VALID,97.1452,VALID,0,VALID,19.7028,VALID,28,VALID,0,
2013-11-05, 01:39:04,VALID,918.191,VALID,0,VALID,97.1452,VALID,0.107441,VALID,19.7028,VALID,25,VALID,0,
2013-11-05, 01:40:04,VALID,918.196,VALID,0.2,VALID,97.1071,VALID,0,VALID,19.7613,VALID,10,VALID,0,
2013-11-05, 01:41:04,VALID,918.181,VALID,0,VALID,97.1223,VALID,0,VALID,19.7418,VALID,10,VALID,0,
2013-11-05, 01:42:04,VALID,918.16,VALID,0.2,VALID,97.1071,VALID,0.107441,VALID,19.7613,VALID,10,VALID,0,
2013-11-05, 01:43:04,VALID,918.179,VALID,0,VALID,97.1071,VALID,0.107441,VALID,19.7808,VALID,10,VALID,0,
2013-11-05, 01:44:04,VALID,918.169,VALID,0.2,VALID,97.1071,VALID,0,VALID,19.7808,VALID,10,VALID,0,
2013-11-05, 01:45:04,VALID,918.169,VALID,0,VALID,97.0994,VALID,0,VALID,19.7613,VALID,10,VALID,0,
2013-11-05, 01:46:04,VALID,918.155,VALID,0,VALID,97.1071,VALID,0,VALID,19.7823,VALID,11,VALID,0,
2013-11-05, 01:47:04,VALID,918.15,VALID,0.2,VALID,97.0994,VALID,0,VALID,19.7613,VALID,22,VALID,0,
2013-11-05, 01:48:04,VALID,918.094,VALID,0.2,VALID,97.0918,VALID,0.107441,VALID,19.7613,VALID,22,VALID,0,
2013-11-05, 01:49:04,VALID,918.092,VALID,0.2,VALID,97.1071,VALID,0.107441,VALID,19.7418,VALID,22,VALID,0,
2013-11-05, 01:50:04,VALID,918.084,VALID,0.2,VALID,97.0994,VALID,0.107441,VALID,19.7223,VALID,22,VALID,0,
2013-11-05, 01:51:04,VALID,918.064,VALID,0.4,VALID,97.0994,VALID,0,VALID,19.7028,VALID,54,VALID,0,
2013-11-05, 01:52:04,VALID,918.044,VALID,0.4,VALID,97.1223,VALID,0,VALID,19.6638,VALID,54,VALID,0,
2013-11-05, 01:53:04,VALID,918.019,VALID,0.2,VALID,97.1071,VALID,0,VALID,19.6848,VALID,53,VALID,0,
2013-11-05, 01:54:04,VALID,918.025,VALID,0.4,VALID,97.1071,VALID,0,VALID,19.6638,VALID,53,VALID,0,
2013-11-05, 01:55:04,VALID,918.041,VALID,0.6,VALID,97.0918,VALID,0,VALID,19.6428,VALID,54,VALID,0,
2013-11-05, 01:56:04,VALID,918.035,VALID,0.6,VALID,97.0994,VALID,0,VALID,19.6848,VALID,54,VALID,0,
2013-11-05, 01:57:04,VALID,917.992,VALID,0.6,VALID,97.0842,VALID,0,VALID,19.6848,VALID,54,VALID,0,
2013-11-05, 01:58:04,VALID,917.993,VALID,0.6,VALID,97.0918,VALID,0,VALID,19.6458,VALID,53,VALID,0,
2013-11-05, 01:59:04,VALID,917.998,VALID,0.8,VALID,97.1147,VALID,0,VALID,19.6248,VALID,53,VALID,0,
2013-11-05, 02:00:04,VALID,917.96,VALID,0.6,VALID,97.1071,VALID,0,VALID,19.6248,VALID,54,VALID,0,
2013-11-05, 02:01:04,VALID,917.987,VALID,0.6,VALID,97.1071,VALID,0,VALID,19.6053,VALID,53,VALID,0,
2013-11-05, 02:02:04,VALID,917.957,VALID,0.6,VALID,97.0994,VALID,0,VALID,19.5468,VALID,123,VALID,0,
2013-11-05, 02:03:04,VALID,917.949,VALID,0.8,VALID,97.0994,VALID,0,VALID,19.5078,VALID,127,VALID,0,
2013-11-05, 02:04:04,VALID,917.95,VALID,0.6,VALID,97.0918,VALID,0,VALID,19.4883,VALID,131,VALID,0,
2013-11-05, 02:05:04,VALID,917.945,VALID,0.6,VALID,97.0766,VALID,0,VALID,19.4883,VALID,174,VALID,0,
2013-11-05, 02:06:04,VALID,917.913,VALID,0.8,VALID,97.0918,VALID,0,VALID,19.3908,VALID,188,VALID,0,
2013-11-05, 02:07:04,VALID,917.917,VALID,0.8,VALID,97.0537,VALID,0,VALID,19.3323,VALID,183,VALID,0,
2013-11-05, 02:08:04,VALID,917.886,VALID,0.6,VALID,97.0385,VALID,0,VALID,19.2933,VALID,184,VALID,0,
2013-11-05, 02:09:04,VALID,917.841,VALID,0.6,VALID,97.0003,VALID,0.107441,VALID,19.2738,VALID,194,VALID,0,
2013-11-05, 02:10:04,VALID,917.812,VALID,0.6,VALID,96.9927,VALID,0.107441,VALID,19.2543,VALID,204,VALID,0,
2013-11-05, 02:11:04,VALID,917.803,VALID,0.8,VALID,96.9775,VALID,0,VALID,19.2153,VALID,223,VALID,0,
2013-11-05, 02:12:04,VALID,917.785,VALID,0.4,VALID,96.9622,VALID,0,VALID,19.2153,VALID,217,VALID,0,
2013-11-05, 02:13:04,VALID,917.769,VALID,0.6,VALID,96.9698,VALID,0,VALID,19.1568,VALID,196,VALID,0,
2013-11-05, 02:14:04,VALID,917.768,VALID,0.4,VALID,96.9546,VALID,0,VALID,19.1778,VALID,216,VALID,0,
2013-11-05, 02:15:04,VALID,917.73,VALID,0.4,VALID,96.9622,VALID,0,VALID,19.1373,VALID,216,VALID,0,
2013-11-05, 02:16:04,VALID,917.71,VALID,0.2,VALID,96.9546,VALID,0,VALID,19.1373,VALID,216,VALID,0,
2013-11-05, 02:17:04,VALID,917.701,VALID,0.2,VALID,96.9775,VALID,0,VALID,19.1178,VALID,216,VALID,0,
2013-11-05, 02:18:04,VALID,917.676,VALID,0.2,VALID,96.9851,VALID,0,VALID,19.1388,VALID,216,VALID,0,
2013-11-05, 02:19:04,VALID,917.676,VALID,0.2,VALID,96.9622,VALID,0,VALID,19.1178,VALID,210,VALID,0,
2013-11-05, 02:20:04,VALID,917.632,VALID,0,VALID,96.9775,VALID,0,VALID,19.1193,VALID,178,VALID,0,
2013-11-05, 02:21:04,VALID,917.628,VALID,0.2,VALID,96.9851,VALID,0,VALID,19.0998,VALID,178,VALID,0,
2013-11-05, 02:22:04,VALID,917.615,VALID,0.2,VALID,96.9927,VALID,0,VALID,19.1193,VALID,178,VALID,0,
2013-11-05, 02:23:04,VALID,917.592,VALID,0,VALID,96.9851,VALID,0,VALID,19.0998,VALID,178,VALID,0,
2013-11-05, 02:24:04,VALID,917.58,VALID,0.2,VALID,96.9775,VALID,0.107441,VALID,19.1193,VALID,178,VALID,0,
2013-11-05, 02:25:04,VALID,917.572,VALID,0.2,VALID,96.9775,VALID,0,VALID,19.0788,VALID,178,VALID,0,
2013-11-05, 02:26:04,VALID,917.562,VALID,0.2,VALID,96.9851,VALID,0,VALID,19.0983,VALID,178,VALID,0,
2013-11-05, 02:27:04,VALID,917.539,VALID,0.2,VALID,96.9775,VALID,0,VALID,19.0788,VALID,178,VALID,0,
2013-11-05, 02:28:04,VALID,917.523,VALID,0.2,VALID,96.9775,VALID,0,VALID,19.0788,VALID,178,VALID,0,
2013-11-05, 02:29:04,VALID,917.501,VALID,0,VALID,97.0003,VALID,0,VALID,19.0998,VALID,178,VALID,0,
2013-11-05, 02:30:04,VALID,917.49,VALID,0.2,VALID,96.9775,VALID,0,VALID,19.0788,VALID,178,VALID,0,
2013-11-05, 02:31:04,VALID,917.462,VALID,0.2,VALID,96.9927,VALID,0,VALID,19.0593,VALID,178,VALID,0,
2013-11-05, 02:32:04,VALID,917.46,VALID,0,VALID,96.9775,VALID,0,VALID,19.0593,VALID,178,VALID,0,
2013-11-05, 02:33:04,VALID,917.464,VALID,0.2,VALID,97.0003,VALID,0,VALID,19.0593,VALID,178,VALID,0,
2013-11-05, 02:34:04,VALID,917.443,VALID,0,VALID,96.9775,VALID,0,VALID,19.0593,VALID,178,VALID,0,
2013-11-05, 02:35:04,VALID,917.463,VALID,0.2,VALID,97.0003,VALID,0,VALID,19.0398,VALID,178,VALID,0,
2013-11-05, 02:36:04,VALID,917.45,VALID,0,VALID,97.0156,VALID,0,VALID,19.0593,VALID,178,VALID,0,
2013-11-05, 02:37:04,VALID,917.439,VALID,0,VALID,97.0232,VALID,0,VALID,19.0398,VALID,178,VALID,0,
2013-11-05, 02:38:04,VALID,917.443,VALID,0.2,VALID,97.0156,VALID,0,VALID,19.0593,VALID,160,VALID,0,
2013-11-05, 02:39:04,VALID,917.404,VALID,0.2,VALID,97.0232,VALID,0,VALID,19.0593,VALID,160,VALID,0,
2013-11-05, 02:40:04,VALID,917.393,VALID,0.2,VALID,97.0232,VALID,0,VALID,19.0803,VALID,159,VALID,0,
2013-11-05, 02:41:04,VALID,917.387,VALID,0,VALID,97.0385,VALID,0,VALID,19.0803,VALID,138,VALID,0,
2013-11-05, 02:42:04,VALID,917.353,VALID,0.2,VALID,97.0232,VALID,0,VALID,19.0788,VALID,138,VALID,0,
2013-11-05, 02:43:04,VALID,917.338,VALID,0,VALID,97.008,VALID,0,VALID,19.0983,VALID,141,VALID,0,
2013-11-05, 02:44:04,VALID,917.367,VALID,0.2,VALID,97.0232,VALID,0.107441,VALID,19.1193,VALID,135,VALID,0,
2013-11-05, 02:45:04,VALID,917.273,VALID,0,VALID,97.0308,VALID,0,VALID,19.1373,VALID,138,VALID,0,
2013-11-05, 02:46:04,VALID,917.297,VALID,0.2,VALID,97.0385,VALID,0,VALID,19.1583,VALID,139,VALID,0,
2013-11-05, 02:47:04,VALID,917.25,VALID,0,VALID,97.0308,VALID,0,VALID,19.1373,VALID,137,VALID,0,
2013-11-05, 02:48:04,VALID,917.254,VALID,0,VALID,97.0385,VALID,0,VALID,19.1763,VALID,143,VALID,0,
2013-11-05, 02:49:04,VALID,917.245,VALID,0.2,VALID,97.0385,VALID,0,VALID,19.2168,VALID,143,VALID,0,
2013-11-05, 02:50:04,VALID,917.208,VALID,0,VALID,97.0308,VALID,0,VALID,19.2348,VALID,145,VALID,0,
2013-11-05, 02:51:04,VALID,917.153,VALID,0,VALID,97.0537,VALID,0,VALID,19.2543,VALID,147,VALID,0,
2013-11-05, 02:52:04,VALID,917.121,VALID,0,VALID,97.0385,VALID,0,VALID,19.2753,VALID,147,VALID,0,
2013-11-05, 02:53:04,VALID,917.129,VALID,0,VALID,97.0385,VALID,0.107441,VALID,19.2753,VALID,146,VALID,0,
2013-11-05, 02:54:04,VALID,917.085,VALID,0,VALID,97.0461,VALID,0,VALID,19.2738,VALID,138,VALID,0,
2013-11-05, 02:55:04,VALID,917.092,VALID,0,VALID,97.0613,VALID,0,VALID,19.2738,VALID,142,VALID,0,
2013-11-05, 02:56:04,VALID,917.046,VALID,0,VALID,97.0766,VALID,0.107441,VALID,19.2543,VALID,162,VALID,0,
2013-11-05, 02:57:04,VALID,917.042,VALID,0,VALID,97.0537,VALID,0,VALID,19.2543,VALID,163,VALID,0,
2013-11-05, 02:58:04,VALID,917.025,VALID,0,VALID,97.0613,VALID,0.107441,VALID,19.2348,VALID,142,VALID,0,
2013-11-05, 02:59:04,VALID,917.016,VALID,0,VALID,97.0613,VALID,0,VALID,19.2558,VALID,142,VALID,0,
2013-11-05, 03:00:04,VALID,916.957,VALID,0,VALID,97.069,VALID,0.107441,VALID,19.2348,VALID,129,VALID,0,
2013-11-05, 03:01:04,VALID,916.95,VALID,0,VALID,97.0766,VALID,0.107441,VALID,19.1958,VALID,135,VALID,0,
2013-11-05, 03:02:04,VALID,916.944,VALID,0,VALID,97.069,VALID,0.107441,VALID,19.2363,VALID,136,VALID,0,
2013-11-05, 03:03:04,VALID,916.912,VALID,0,VALID,97.0537,VALID,0,VALID,19.2348,VALID,136,VALID,0,
2013-11-05, 03:04:04,VALID,916.91,VALID,0,VALID,97.0613,VALID,0,VALID,19.2153,VALID,133,VALID,0,
2013-11-05, 03:05:04,VALID,916.89,VALID,0,VALID,97.0766,VALID,0.107441,VALID,19.2153,VALID,132,VALID,0,
2013-11-05, 03:06:04,VALID,916.88,VALID,0,VALID,97.0842,VALID,0,VALID,19.2543,VALID,141,VALID,0,
2013-11-05, 03:07:04,VALID,916.852,VALID,0,VALID,97.069,VALID,0.107441,VALID,19.2348,VALID,139,VALID,0,
2013-11-05, 03:08:04,VALID,916.833,VALID,0,VALID,97.0842,VALID,0.107441,VALID,19.2348,VALID,137,VALID,0,
2013-11-05, 03:09:04,VALID,916.868,VALID,0,VALID,97.0842,VALID,0,VALID,19.2348,VALID,136,VALID,0,
2013-11-05, 03:10:04,VALID,916.852,VALID,0,VALID,97.069,VALID,0,VALID,19.2543,VALID,132,VALID,0,
2013-11-05, 03:11:04,VALID,916.808,VALID,0,VALID,97.0842,VALID,0,VALID,19.2543,VALID,138,VALID,0,
2013-11-05, 03:12:04,VALID,916.817,VALID,0,VALID,97.0766,VALID,0.107441,VALID,19.2543,VALID,125,VALID,0,
2013-11-05, 03:13:04,VALID,916.815,VALID,0,VALID,97.0994,VALID,0,VALID,19.2543,VALID,130,VALID,0,
2013-11-05, 03:14:04,VALID,916.821,VALID,0,VALID,97.0766,VALID,0,VALID,19.2543,VALID,131,VALID,0,
2013-11-05, 03:15:04,VALID,916.807,VALID,0,VALID,97.0994,VALID,0.107441,VALID,19.2543,VALID,130,VALID,0,
2013-11-05, 03:16:04,VALID,916.802,VALID,0,VALID,97.0842,VALID,0,VALID,19.2543,VALID,126,VALID,0,
2013-11-05, 03:17:04,VALID,916.814,VALID,0,VALID,97.0766,VALID,0,VALID,19.2543,VALID,127,VALID,0,
2013-11-05, 03:18:04,VALID,916.824,VALID,0,VALID,97.1223,VALID,0.107441,VALID,19.2738,VALID,103,VALID,0,
2013-11-05, 03:19:04,VALID,916.803,VALID,0,VALID,97.0918,VALID,0,VALID,19.2738,VALID,105,VALID,0,
2013-11-05, 03:20:04,VALID,916.786,VALID,0,VALID,97.0918,VALID,0,VALID,19.2933,VALID,106,VALID,0,
2013-11-05, 03:21:04,VALID,916.778,VALID,0,VALID,97.0994,VALID,0,VALID,19.2933,VALID,112,VALID,0,
2013-11-05, 03:22:04,VALID,916.804,VALID,0,VALID,97.1147,VALID,0,VALID,19.2933,VALID,111,VALID,0,
2013-11-05, 03:23:04,VALID,916.767,VALID,0,VALID,97.1071,VALID,0,VALID,19.3338,VALID,94,VALID,0,
2013-11-05, 03:24:05,VALID,916.775,VALID,0,VALID,97.1071,VALID,0.107441,VALID,19.3128,VALID,85,VALID,0,
2013-11-05, 03:25:05,VALID,916.781,VALID,0,VALID,97.1147,VALID,0.107441,VALID,19.3128,VALID,83,VALID,0,
2013-11-05, 03:26:05,VALID,916.74,VALID,0,VALID,97.1299,VALID,0,VALID,19.3323,VALID,83,VALID,0,
2013-11-05, 03:27:05,VALID,916.773,VALID,0,VALID,97.1071,VALID,0.107441,VALID,19.3128,VALID,78,VALID,0,
2013-11-05, 03:28:05,VALID,916.784,VALID,0,VALID,97.1223,VALID,0.107441,VALID,19.3128,VALID,83,VALID,0,
2013-11-05, 03:29:05,VALID,916.77,VALID,0,VALID,97.1071,VALID,0,VALID,19.3128,VALID,76,VALID,0,
2013-11-05, 03:30:05,VALID,916.789,VALID,0,VALID,97.1223,VALID,0,VALID,19.3128,VALID,74,VALID,0,
2013-11-05, 03:31:05,VALID,916.753,VALID,0,VALID,97.1376,VALID,0,VALID,19.2933,VALID,69,VALID,0,
2013-11-05, 03:32:05,VALID,916.758,VALID,0,VALID,97.1147,VALID,0,VALID,19.2933,VALID,69,VALID,0,
2013-11-05, 03:33:05,VALID,916.752,VALID,0,VALID,97.1071,VALID,0.107441,VALID,19.2933,VALID,69,VALID,0,
2013-11-05, 03:34:05,VALID,916.743,VALID,0,VALID,97.1299,VALID,0,VALID,19.2933,VALID,72,VALID,0,
2013-11-05, 03:35:05,VALID,916.752,VALID,0,VALID,97.1147,VALID,0,VALID,19.2948,VALID,91,VALID,0,
2013-11-05, 03:36:05,VALID,916.741,VALID,0,VALID,97.0994,VALID,0,VALID,19.2933,VALID,98,VALID,0,
2013-11-05, 03:37:05,VALID,916.703,VALID,0,VALID,97.1071,VALID,0,VALID,19.2543,VALID,98,VALID,0,
2013-11-05, 03:38:05,VALID,916.691,VALID,0,VALID,97.0918,VALID,0,VALID,19.2753,VALID,124,VALID,0,
2013-11-05, 03:39:05,VALID,916.673,VALID,0,VALID,97.0994,VALID,0,VALID,19.2753,VALID,134,VALID,0,
2013-11-05, 03:40:05,VALID,916.683,VALID,0,VALID,97.0994,VALID,0.107441,VALID,19.2543,VALID,138,VALID,0,
2013-11-05, 03:41:05,VALID,916.638,VALID,0,VALID,97.0918,VALID,0,VALID,19.2738,VALID,140,VALID,0,
2013-11-05, 03:42:05,VALID,916.684,VALID,0,VALID,97.0994,VALID,0,VALID,19.2753,VALID,157,VALID,0,
2013-11-05, 03:43:05,VALID,916.658,VALID,0,VALID,97.0918,VALID,0.107441,VALID,19.2738,VALID,152,VALID,0,
2013-11-05, 03:44:05,VALID,916.657,VALID,0,VALID,97.1071,VALID,0,VALID,19.2543,VALID,150,VALID,0,
2013-11-05, 03:45:05,VALID,916.632,VALID,0,VALID,97.1147,VALID,0,VALID,19.2738,VALID,156,VALID,0,
2013-11-05, 03:46:05,VALID,916.652,VALID,0,VALID,97.1071,VALID,0,VALID,19.2543,VALID,151,VALID,0,
2013-11-05, 03:47:05,VALID,916.66,VALID,0,VALID,97.1147,VALID,0.107441,VALID,19.2543,VALID,151,VALID,0,
2013-11-05, 03:48:05,VALID,916.645,VALID,0,VALID,97.1071,VALID,0,VALID,19.2558,VALID,167,VALID,0,
2013-11-05, 03:49:05,VALID,916.654,VALID,0,VALID,97.1071,VALID,0.107441,VALID,19.2348,VALID,146,VALID,0,
2013-11-05, 03:50:05,VALID,916.652,VALID,0,VALID,97.1223,VALID,0.107441,VALID,19.2348,VALID,153,VALID,0,
2013-11-05, 03:51:05,VALID,916.653,VALID,0,VALID,97.1223,VALID,0,VALID,19.2348,VALID,175,VALID,0,
2013-11-05, 03:52:05,VALID,916.643,VALID,0,VALID,97.1071,VALID,0,VALID,19.2348,VALID,169,VALID,0,
2013-11-05, 03:53:05,VALID,916.648,VALID,0,VALID,97.1223,VALID,0,VALID,19.2558,VALID,163,VALID,0,